This demonstration page uses our WeatherBlox Daily Observations layout. Learn more.

Left ArrowRight Arrow

34.02893, -84.19858

Hourly Observations for July 23, 2018

Temp ( °F °C ) Dew Point ( °F °C ) Humidity (%) Winds ( mph kmh ) Pressure ( in mb ) Visibility ( mi km ) Precip ( " mm )
12:53 am 00:53 Clear 68 20 67 19.4 96 96 Calm 29.76 1008 9 14 0.00 0.00
1:53 am 01:53 Clear 68 20 67 19.4 96 96 W 6 9 29.73 1007 10 16 0.00 0.00
2:53 am 02:53 Clear 68 20 67 19.4 96 96 WNW 3 6 29.73 1007 10 16 0.00 0.00
3:53 am 03:53 Mostly Cloudy 68 20 67 19.4 96 96 Calm 29.74 1007 10 16 0.00 0.00
4:53 am 04:53 Cloudy 68 20 67 19.4 96 96 Calm 29.74 1007 8 13 0.00 0.00
5:53 am 05:53 Cloudy 68 20 67 19.4 96 96 Calm 29.75 1007 7 11 0.00 0.00
6:53 am 06:53 Cloudy with Mist and Fog 68 20 67 19.4 96 96 Calm 29.77 1008 6 10 0.00 0.00
7:27 am 07:27 Cloudy 68 20 68 20 100 100 Calm 29.80 1009 7 11 0.00 0.00
7:37 am 07:37 Cloudy with Mist and Fog 69 20.6 68 20 96 96 Calm 29.80 1009 6 10 0.00 0.00
7:53 am 07:53 Mostly Cloudy 70 21.1 68 20 93 93 N 3 6 29.78 1009 9 14 0.00 0.00
8:10 am 08:10 Partly Cloudy 70 21.1 67 19.4 90 90 N 5 7 29.80 1009 10 16 0.00 0.00
8:28 am 08:28 Mostly Cloudy 71 21.7 68 20 90 90 N 3 6 29.80 1009 10 16 0.00 0.00
8:53 am 08:53 Mostly Cloudy 71 21.7 68 20 90 90 N 3 6 29.79 1009 10 16 0.00 0.00
9:16 am 09:16 Cloudy 71 21.7 68 20 90 90 N 5 7 29.80 1009 10 16 0.00 0.00
9:53 am 09:53 Cloudy 72 22.2 68 20 87 87 N 6 9 29.80 1009 10 16 0.00 0.00
10:26 am 10:26 Cloudy 73 22.8 68 20 84 84 N 5 7 29.77 1008 10 16 0.00 0.00
10:39 am 10:39 Cloudy 73 22.8 67 19.4 81 81 NNE 7 11 29.80 1009 10 16 0.00 0.00
10:48 am 10:48 Cloudy 73 23 66 19 78 78 NE 6 9 29.80 1009 10 16 0.00 0.00
10:53 am 10:53 Cloudy 73 22.8 67 19.4 81 81 NNE 6 9 29.81 1009 10 16 0.00 0.00
11:53 am 11:53 Mostly Cloudy 74 23.3 67 19.4 79 79 E 5 7 29.82 1010 10 16 0.00 0.00
12:21 pm 12:21 Partly Cloudy 76 24.4 67 19.4 74 74 S 3 6 29.80 1009 10 16 0.00 0.00
12:51 pm 12:51 Mostly Cloudy 79 26 66 19 65 65 Calm 29.80 1009 10 16 0.00 0.00
12:53 pm 12:53 Mostly Cloudy 78 25.6 67 19.4 69 69 VRB 5 7 29.81 1010 10 16 0.00 0.00
1:13 pm 13:13 Partly Cloudy 81 27.2 67 19.4 62 62 VRB 5 7 29.80 1009 10 16 0.00 0.00
1:53 pm 13:53 Cloudy 79 26.1 67 19.4 67 67 NNE 6 9 29.81 1009 10 16 0.00 0.00
2:05 pm 14:05 Cloudy 80 26.7 66 18.9 62 62 NNE 3 6 29.80 1009 10 16 0.00 0.00
2:53 pm 14:53 Cloudy 80 26.7 67 19.4 64 64 NNW 7 11 29.79 1009 10 16 0.00 0.00
3:00 pm 15:00 Cloudy 80 26.7 67 19.4 64 64 Calm 29.77 1008 10 16 0.00 0.00
3:53 pm 15:53 Mostly Sunny 83 28.3 68 20 61 61 SE 6 9 29.77 1008 10 16 0.00 0.00
4:53 pm 16:53 Partly Cloudy 82 27.8 64 17.8 55 55 Calm 29.77 1008 10 16 0.00 0.00
5:53 pm 17:53 Cloudy 84 28.9 66 18.9 55 55 Calm 29.77 1008 10 16 0.00 0.00
6:53 pm 18:53 Cloudy 82 27.8 67 19.4 60 60 Calm 29.78 1008 10 16 0.00 0.00
7:53 pm 19:53 Mostly Cloudy 81 27.2 68 20 65 65 N 6 9 29.80 1009 10 16 0.00 0.00
8:53 pm 20:53 Clear 78 25.6 69 20.6 74 74 N 6 9 29.83 1010 10 16 0.00 0.00
9:14 pm 21:14 Mostly Cloudy with Nearby Thunderstorms 77 25 68 20 74 74 VRB 6 9 29.83 1010 10 16 0.00 0.00
9:32 pm 21:32 Cloudy with Nearby Thunderstorms 72 22.2 69 20.6 91 91 VRB 6 9 29.85 1011 2 3 0.16 4.06
9:42 pm 21:42 Cloudy with Heavy Rain 71 21.7 70 21.1 96 96 SE 7 11 29.88 1012 1 2 0.46 11.68
9:53 pm 21:53 Cloudy with Heavy Rain 72 22.2 68 20 87 87 S 9 15 29.86 1011 2 2 0.61 15.49
9:56 pm 21:56 Cloudy with Nearby Thunderstorms 72 22.2 68 20 87 87 S 9 15 29.88 1012 2 3 0.02 0.51
10:01 pm 22:01 Cloudy with Nearby Thunderstorms 72 22.2 69 20.6 91 91 SW 9 15 29.88 1012 3 5 0.04 1.02
10:09 pm 22:09 Cloudy with Thunderstorms 72 22.2 67 19.4 84 84 W 5 7 29.88 1012 4 6 0.06 1.52
10:24 pm 22:24 Cloudy with Nearby Thunderstorms 71 21.7 69 20.6 94 94 N 5 7 29.88 1012 4 6 0.14 3.56
10:53 pm 22:53 Cloudy with Nearby Thunderstorms 71 21.7 70 21.1 96 96 SSW 9 15 29.88 1012 4 6 0.17 4.32
11:04 pm 23:04 Cloudy with Thunderstorms 72 22.2 70 21.1 94 94 SW 5 7 29.88 1012 5 8 0.02 0.51
11:26 pm 23:26 Cloudy with Nearby Thunderstorms 72 22.2 70 21.1 94 94 N 3 6 29.88 1012 10 16 0.02 0.51
11:45 pm 23:45 Cloudy 72 22.2 70 21.1 94 94 W 5 7 29.91 1013 10 16 0.02 0.51
11:53 pm 23:53 Cloudy 72 22.2 71 21.7 97 97 WSW 6 9 29.88 1012 10 16 0.02 0.51

Powered by AerisWeather